When you browse on this site, cookies collect data to enhance your experience and personalize the content and advertising you see.
Visit our Privacy Policy to learn more. By continuing to use the site, you agree to this use of cookies and data.
  • In United Kingdom
  • List of Countries
  • For 7 days
  • Water Temperature
  • Satellite Maps
  • Weather Map
  • Weather Widgets
  • user-avatar
    Login

    Hourly Weather Kudowa-Zdrój

    Today, 21 June, Friday

    Time Temperature Precipitation Wind Pressure Humidity
    00:00 +16°C° 0.3 mm 0 mps 722 mmHg 87%
    01:00 +16°C° 0.3 mm 0 mps 722 mmHg 89%
    02:00 +15°C° 0.3 mm 0 mps 722 mmHg 90%
    03:00 +16°C° 0.3 mm 1 mps 722 mmHg 91%
    04:00 +16°C° 0.3 mm 1 mps 722 mmHg 92%
    05:00 +18°C° 0 mm 1 mps 723 mmHg 92%
    06:00 +19°C° 0 mm 1 mps 723 mmHg 91%
    07:00 +20°C° 0 mm 1 mps 723 mmHg 91%
    08:00 +20°C° 0.5 mm 1 mps 724 mmHg 90%
    09:00 +20°C° 0.5 mm 1 mps 724 mmHg 89%
    10:00 +21°C° 0.5 mm 1 mps 724 mmHg 88%
    11:00 +22°C° 0.8 mm 1 mps 724 mmHg 82%
    12:00 +23°C° 0.8 mm 1 mps 724 mmHg 75%
    13:00 +24°C° 0.8 mm 1 mps 724 mmHg 69%
    14:00 +25°C° 0.3 mm 2 mps 724 mmHg 68%
    15:00 +25°C° 0.3 mm 2 mps 724 mmHg 67%
    16:00 +25°C° 0.3 mm 2 mps 724 mmHg 66%
    17:00 +24°C° 0.3 mm 2 mps 724 mmHg 74%
    18:00 +21°C° 0.3 mm 2 mps 724 mmHg 81%
    19:00 +20°C° 0.3 mm 2 mps 724 mmHg 89%
    20:00 +19°C° 0.1 mm 2 mps 724 mmHg 90%
    21:00 +18°C° 0.1 mm 2 mps 725 mmHg 91%
    22:00 +17°C° 0.1 mm 2 mps 725 mmHg 92%
    23:00 +16°C° 0 mm 2 mps 725 mmHg 92%

    Tomorrow, 22 June, Saturday

    Time Temperature Precipitation Wind Pressure Humidity
    00:00 +16°C° 0 mm 2 mps 725 mmHg 93%
    01:00 +16°C° 0 mm 2 mps 725 mmHg 93%
    02:00 +14°C° 0 mm 3 mps 726 mmHg 94%
    03:00 +14°C° 0 mm 3 mps 726 mmHg 95%
    04:00 +14°C° 0 mm 3 mps 726 mmHg 96%
    05:00 +14°C° 0 mm 3 mps 726 mmHg 94%
    06:00 +15°C° 0 mm 4 mps 727 mmHg 92%
    07:00 +15°C° 0 mm 4 mps 727 mmHg 89%
    08:00 +17°C° 0 mm 4 mps 727 mmHg 86%
    09:00 +17°C° 0 mm 5 mps 727 mmHg 83%
    10:00 +17°C° 0 mm 5 mps 727 mmHg 80%
    11:00 +19°C° 0 mm 5 mps 727 mmHg 79%
    12:00 +19°C° 0 mm 5 mps 727 mmHg 77%
    13:00 +20°C° 0 mm 5 mps 726 mmHg 76%
    14:00 +20°C° 0 mm 5 mps 726 mmHg 76%
    15:00 +20°C° 0 mm 6 mps 726 mmHg 77%
    16:00 +20°C° 0 mm 6 mps 725 mmHg 77%
    17:00 +20°C° 0 mm 6 mps 725 mmHg 79%
    18:00 +19°C° 0 mm 6 mps 725 mmHg 81%
    19:00 +19°C° 0 mm 6 mps 725 mmHg 83%
    20:00 +17°C° 0 mm 6 mps 725 mmHg 83%
    21:00 +17°C° 0 mm 6 mps 725 mmHg 83%
    22:00 +17°C° 0 mm 6 mps 725 mmHg 82%
    23:00 +16°C° 0 mm 6 mps 725 mmHg 85%

    Day after tomorrow, 23 June, Sunday

    Time Temperature Precipitation Wind Pressure Humidity
    00:00 +16°C° 0 mm 6 mps 725 mmHg 87%
    01:00 +15°C° 0 mm 6 mps 725 mmHg 90%
    02:00 +15°C° 0 mm 5 mps 725 mmHg 90%
    03:00 +15°C° 0 mm 5 mps 725 mmHg 90%
    04:00 +14°C° 0 mm 5 mps 725 mmHg 91%
    05:00 +15°C° 0 mm 5 mps 725 mmHg 90%
    06:00 +15°C° 0 mm 5 mps 726 mmHg 89%
    07:00 +15°C° 0 mm 5 mps 726 mmHg 89%
    08:00 +16°C° 0 mm 5 mps 726 mmHg 86%
    09:00 +16°C° 0 mm 5 mps 726 mmHg 83%
    10:00 +17°C° 0 mm 5 mps 727 mmHg 80%
    11:00 +19°C° 0 mm 6 mps 727 mmHg 78%
    12:00 +20°C° 0 mm 6 mps 727 mmHg 75%
    13:00 +20°C° 0 mm 6 mps 727 mmHg 73%
    14:00 +21°C° 0 mm 6 mps 727 mmHg 74%
    15:00 +21°C° 0 mm 6 mps 727 mmHg 75%
    16:00 +21°C° 0 mm 6 mps 727 mmHg 76%
    17:00 +20°C° 0 mm 6 mps 727 mmHg 78%
    18:00 +20°C° 0 mm 6 mps 727 mmHg 81%
    19:00 +20°C° 0 mm 5 mps 727 mmHg 83%
    20:00 +19°C° 0 mm 5 mps 728 mmHg 84%
    21:00 +18°C° 0 mm 4 mps 728 mmHg 84%
    22:00 +17°C° 0 mm 4 mps 728 mmHg 85%
    23:00 +16°C° 0 mm 3 mps 728 mmHg 88%

    24 June, Monday

    Time Temperature Precipitation Wind Pressure Humidity
    00:00 +14°C° 0 mm 3 mps 728 mmHg 91%
    01:00 +14°C° 0 mm 2 mps 729 mmHg 94%
    02:00 +14°C° 0 mm 2 mps 728 mmHg 95%
    03:00 +14°C° 0 mm 2 mps 728 mmHg 95%
    04:00 +14°C° 0 mm 2 mps 728 mmHg 96%
    05:00 +15°C° 0 mm 2 mps 729 mmHg 94%
    06:00 +16°C° 0 mm 2 mps 729 mmHg 91%
    07:00 +17°C° 0 mm 2 mps 730 mmHg 88%
    08:00 +18°C° 0 mm 3 mps 730 mmHg 86%
    09:00 +19°C° 0 mm 3 mps 730 mmHg 84%
    10:00 +20°C° 0 mm 4 mps 730 mmHg 81%
    11:00 +20°C° 0 mm 4 mps 730 mmHg 80%
    12:00 +21°C° 0 mm 4 mps 730 mmHg 79%
    13:00 +22°C° 0 mm 4 mps 730 mmHg 77%
    14:00 +22°C° 0.1 mm 4 mps 730 mmHg 76%
    15:00 +23°C° 0.1 mm 4 mps 730 mmHg 75%
    16:00 +25°C° 0.1 mm 5 mps 730 mmHg 73%
    17:00 +23°C° 0.1 mm 4 mps 730 mmHg 78%
    18:00 +22°C° 0.1 mm 4 mps 730 mmHg 83%
    19:00 +21°C° 0.1 mm 3 mps 730 mmHg 87%
    20:00 +20°C° 0 mm 3 mps 730 mmHg 90%
    21:00 +19°C° 0 mm 3 mps 730 mmHg 93%
    22:00 +18°C° 0 mm 2 mps 731 mmHg 96%
    23:00 +18°C° 0 mm 2 mps 731 mmHg 96%

    25 June, Tuesday

    Time Temperature Precipitation Wind Pressure Humidity
    00:00 +18°C° 0 mm 2 mps 731 mmHg 97%
    01:00 +18°C° 0 mm 2 mps 731 mmHg 97%
    02:00 +18°C° 0 mm 2 mps 731 mmHg 97%
    03:00 +18°C° 0 mm 2 mps 731 mmHg 98%
    04:00 +18°C° 0 mm 2 mps 730 mmHg 98%
    05:00 +19°C° 0 mm 2 mps 731 mmHg 95%
    06:00 +20°C° 0 mm 2 mps 731 mmHg 92%
    07:00 +21°C° 0 mm 3 mps 731 mmHg 90%
    08:00 +21°C° 0 mm 3 mps 731 mmHg 87%
    09:00 +22°C° 0 mm 3 mps 731 mmHg 84%
    10:00 +24°C° 0 mm 3 mps 732 mmHg 81%
    11:00 +24°C° 0 mm 3 mps 731 mmHg 80%
    12:00 +25°C° 0 mm 4 mps 731 mmHg 78%
    13:00 +26°C° 0 mm 4 mps 731 mmHg 76%
    14:00 +26°C° 0.3 mm 4 mps 731 mmHg 74%
    15:00 +27°C° 0.3 mm 4 mps 731 mmHg 73%
    16:00 +27°C° 0.3 mm 4 mps 731 mmHg 71%
    17:00 +27°C° 0.1 mm 4 mps 731 mmHg 75%
    18:00 +26°C° 0.1 mm 3 mps 731 mmHg 79%
    19:00 +25°C° 0.1 mm 3 mps 731 mmHg 83%
    20:00 +24°C° 0 mm 3 mps 731 mmHg 86%
    21:00 +22°C° 0 mm 3 mps 731 mmHg 89%
    22:00 +21°C° 0 mm 3 mps 731 mmHg 91%
    23:00 +20°C° 0 mm 2 mps 731 mmHg 93%

    26 June, Wednesday

    Time Temperature Precipitation Wind Pressure Humidity
    00:00 +20°C° 0 mm 2 mps 731 mmHg 94%
    01:00 +19°C° 0 mm 2 mps 731 mmHg 95%
    02:00 +19°C° 0 mm 2 mps 730 mmHg 96%
    03:00 +19°C° 0 mm 2 mps 730 mmHg 96%
    04:00 +18°C° 0 mm 2 mps 730 mmHg 97%
    05:00 +20°C° 0 mm 2 mps 730 mmHg 94%
    06:00 +21°C° 0 mm 2 mps 730 mmHg 91%
    07:00 +23°C° 0 mm 2 mps 730 mmHg 88%
    08:00 +24°C° 0 mm 3 mps 731 mmHg 83%
    09:00 +25°C° 0 mm 3 mps 731 mmHg 78%
    10:00 +26°C° 0 mm 3 mps 731 mmHg 73%
    11:00 +27°C° 0 mm 3 mps 730 mmHg 69%
    12:00 +28°C° 0 mm 3 mps 730 mmHg 66%
    13:00 +29°C° 0 mm 3 mps 730 mmHg 63%
    14:00 +28°C° 0.1 mm 3 mps 729 mmHg 64%
    15:00 +28°C° 0.1 mm 3 mps 729 mmHg 65%
    16:00 +28°C° 0.1 mm 3 mps 729 mmHg 66%
    17:00 +27°C° 0.1 mm 3 mps 729 mmHg 72%
    18:00 +26°C° 0.1 mm 2 mps 728 mmHg 77%
    19:00 +25°C° 0.1 mm 2 mps 728 mmHg 83%
    20:00 +24°C° 0 mm 2 mps 728 mmHg 85%
    21:00 +21°C° 0 mm 2 mps 728 mmHg 88%
    22:00 +21°C° 0 mm 1 mps 728 mmHg 90%
    23:00 +20°C° 0 mm 1 mps 728 mmHg 91%
    Show more